[[{"header":{"parameterUnit":"m.s-1","parameterCategory":1,"la1":30.2991,"la2":30.254,"lo1":-89.0895,"lo2":-89.0444,"dy":0.0017,"dx":0.0017,"nx":28,"ny":28,"refTime":"2025-12-30T03:00:00:Z","depth":0,"parameterNumber":2,"parameterNumberName":"U-component_of_WINDS"},"data":[0,0,0,0,0,0,0,0,0,0,0,0,0,0,0,0,0,0,0,0,0,0,0,0,0,0,0,0,0,0,0,0,0,0,0,0,0,0,0,0,0,0,0,0,0,0,0,0,0,0,0,0,0,0,0,0,0,0,1.6221,1.6221,0,1.6223,1.6223,1.6223,1.621,1.621,1.621,1.6209,1.621,1.621,1.6211,0,0,0,0,0,0,0,0,0,0,0,0,0,1.6206,1.6206,1.6221,1.6221,1.6221,1.6223,1.6223,1.6223,1.621,1.621,1.621,1.6209,1.621,1.621,1.6211,0,0,0,0,0,0,0,0,0,0,0,0,0,1.6211,1.6206,1.6221,1.6215,1.6214,1.6223,1.6223,1.6223,1.6211,1.621,1.6209,1.6209,1.621,1.621,1.6211,1.6224,0,0,1.6212,1.6213,0,0,0,0,0,0,0,0,1.621,1.6211,1.6216,1.6215,1.6215,1.6216,1.6218,1.6223,1.6211,1.6212,1.6209,1.6209,1.6212,1.6213,1.6214,1.6224,1.6224,1.6212,1.6213,1.6213,1.6213,0,0,0,0,0,0,0,1.621,1.6211,1.6221,1.6216,1.6215,1.6212,1.6212,1.6219,1.6215,1.6212,1.6211,1.6211,1.6212,1.6214,1.6214,1.6224,1.6212,1.6213,1.6213,1.6213,1.6247,1.6248,0,0,0,0,0,0,1.6211,1.6211,1.6221,1.6221,1.6211,1.6213,1.6213,1.6216,1.6215,1.6214,1.6212,1.6211,1.6213,1.6213,1.6214,1.623,1.6213,1.6213,1.6214,1.6247,1.6247,1.6248,0,0,0,0,0,0,1.621,1.6212,1.6221,1.6216,1.6217,1.6214,1.6217,1.6216,1.6218,1.6215,1.6214,1.6214,1.6213,1.6213,1.6222,1.623,1.6214,1.6214,1.6246,1.6247,1.6248,1.6262,0,0,0,0,0,0,1.621,1.6212,1.6216,1.6216,1.6217,1.6229,1.6218,1.6217,1.6219,1.6218,1.6217,1.6216,1.6212,1.6222,1.6223,1.623,1.6215,1.6245,1.6246,1.6247,1.6261,1.6263,1.6265,0,0,0,0,0,1.6209,1.622,1.6217,1.6218,1.6223,1.623,1.623,1.6226,1.622,1.6224,1.6223,1.6216,1.6229,1.6223,1.6224,1.6232,1.6245,1.6246,1.6247,1.626,1.6263,1.6265,0,0,0,0,0,0,1.622,1.622,1.6216,1.6227,1.6229,1.6228,1.6234,1.6229,1.6232,1.6231,1.6225,1.6225,1.6235,1.6234,1.6227,1.6245,1.6236,1.6237,1.6245,1.6248,1.625,1.6249,1.6215,0,0,0,0,0,1.6224,1.623,1.6229,1.6238,1.624,1.6237,1.6239,1.6236,1.6237,1.6238,1.6237,1.6238,1.6242,1.6245,1.6249,1.6261,1.6261,1.6267,1.627,1.6272,1.6273,1.628,1.6283,1.6252,1.6252,1.6252,0,0,1.6232,1.6232,1.6236,1.6241,1.6241,1.6247,1.6237,1.6243,1.6248,1.6238,1.6247,1.6247,1.6248,1.6259,1.6263,1.6258,1.6281,1.6273,1.6275,1.6275,1.6281,1.6284,1.6287,1.6253,1.6253,1.6253,0,0,1.6248,1.6249,1.6257,1.6259,1.6261,1.6259,1.6262,1.6262,1.6261,1.627,1.6264,1.6269,1.6276,1.6278,1.6279,1.6299,1.6293,1.6301,1.6312,1.6319,1.6321,1.6323,1.633,1.6333,1.6302,1.6302,1.6302,0,1.6257,1.6265,1.6262,1.6269,1.6272,1.6265,1.6274,1.6275,1.6278,1.628,1.6275,1.6286,1.6286,1.6297,1.6302,1.6304,1.6306,1.63,1.6321,1.6323,1.6325,1.6332,1.6334,1.6303,1.6303,1.6303,1.6303,0,1.6276,1.6283,1.6289,1.6293,1.6297,1.6304,1.6302,1.6307,1.6304,1.6303,1.6312,1.6313,1.6317,1.632,1.6316,1.6331,1.6328,1.6322,1.6312,1.6329,1.6335,1.6338,1.6304,1.6304,1.6304,1.6303,0,0,1.6297,1.6301,1.6303,1.6306,1.6308,1.6313,1.6321,1.6326,1.633,1.6333,1.6339,1.6347,1.6342,1.6344,1.6342,1.6348,1.6364,1.6342,1.6341,1.6345,1.638,1.6384,1.6387,1.6361,1.6361,1.6361,1.638,0,1.6313,1.6327,1.6325,1.6339,1.6345,1.634,1.6347,1.6349,1.6349,1.6355,1.6355,1.636,1.6353,1.6355,1.6361,1.636,1.637,1.6359,1.6366,1.6366,1.6365,1.639,1.6393,1.641,1.6382,1.6383,1.6383,0,1.6333,1.6338,1.6352,1.6355,1.6357,1.6364,1.6369,1.6374,1.6377,1.6377,1.6381,1.6377,1.6386,1.6377,1.6389,1.6381,1.6384,1.6385,1.6385,1.6385,1.6375,1.6389,1.6416,1.6418,1.6386,1.6386,1.6386,0,1.6347,1.6357,1.6367,1.6369,1.6373,1.6377,1.6379,1.6382,1.6386,1.639,1.6393,1.6398,1.6401,1.6405,1.6404,1.6398,1.6416,1.6407,1.6416,1.6416,1.6418,1.6418,1.6445,1.6422,1.6422,1.6422,1.6422,0,1.6364,1.6372,1.6373,1.6379,1.6389,1.6387,1.6397,1.6399,1.6402,1.6408,1.6404,1.641,1.6408,1.6414,1.6413,1.6423,1.6424,1.6424,1.6424,1.6424,1.6424,1.6425,1.6423,1.6423,1.6422,1.6422,1.6422,0,1.638,1.638,1.6391,1.6395,1.6396,1.6403,1.6406,1.6412,1.6413,1.6421,1.6423,1.6423,1.643,1.643,1.6437,1.6437,1.6449,1.6447,1.6448,1.6447,1.6456,1.6455,1.6483,1.6487,1.6463,1.6463,1.6463,0,1.639,1.6397,1.6402,1.6406,1.6409,1.6415,1.642,1.6419,1.6423,1.6429,1.6434,1.6441,1.6447,1.6458,1.6459,1.6466,1.6464,1.6473,1.6464,1.6465,1.6463,1.6462,1.6463,1.6475,1.6475,1.6475,1.6475,0,1.6408,1.6409,1.6415,1.6422,1.6427,1.6432,1.6437,1.6441,1.6441,1.6446,1.6454,1.6458,1.6467,1.6474,1.648,1.6482,1.6479,1.6479,1.6481,1.648,1.648,1.648,1.6452,1.6477,1.6477,1.6477,1.6477,1.6477,1.6421,1.6427,1.6432,1.644,1.6444,1.6449,1.6455,1.6457,1.6463,1.6471,1.647,1.6479,1.6483,1.6492,1.6495,1.6501,1.6498,1.6501,1.6502,1.6502,1.6503,1.6481,1.6503,1.6503,1.6502,1.6502,1.6502,0,1.6439,1.6442,1.6449,1.6457,1.6463,1.6461,1.6466,1.6471,1.6479,1.6484,1.649,1.6499,1.6507,1.6509,1.6517,1.6522,1.652,1.6523,1.6522,1.6523,1.6506,1.6503,1.6524,1.6524,1.6524,1.6524,1.6524,1.6524,1.6448,1.6459,1.646,1.6473,1.6477,1.6485,1.6489,1.6494,1.6498,1.6509,1.6515,1.6517,1.6521,1.6529,1.6536,1.6537,1.6539,1.6543,1.6543,1.6526,1.6524,1.6522,1.6519,1.6544,1.6544,1.6559,1.6559,1.6559]},{"header":{"parameterUnit":"m.s-1","parameterCategory":1,"la1":30.2991,"la2":30.254,"lo1":-89.0895,"lo2":-89.0444,"dy":0.0017,"dx":0.0017,"nx":28,"ny":28,"refTime":"2025-12-30T03:00:00:Z","depth":0,"parameterNumber":3,"parameterNumberName":"V-component_of_WINDS"},"data":[0,0,0,0,0,0,0,0,0,0,0,0,0,0,0,0,0,0,0,0,0,0,0,0,0,0,0,0,0,0,0,0,0,0,0,0,0,0,0,0,0,0,0,0,0,0,0,0,0,0,0,0,0,0,0,0,0,0,-8.6292,-8.6294,0,-8.6473,-8.6475,-8.6477,-8.6383,-8.6379,-8.6374,-8.6369,-8.6548,-8.6556,-8.6566,0,0,0,0,0,0,0,0,0,0,0,0,0,-8.5861,-8.5869,-8.6292,-8.6294,-8.6297,-8.6472,-8.6475,-8.6477,-8.6384,-8.6378,-8.6373,-8.6367,-8.6545,-8.6555,-8.6566,0,0,0,0,0,0,0,0,0,0,0,0,0,-8.6045,-8.5872,-8.6292,-8.6271,-8.6271,-8.6472,-8.6475,-8.6478,-8.6385,-8.6378,-8.6371,-8.6364,-8.6541,-8.6554,-8.6568,-8.6796,0,0,-8.661,-8.6616,0,0,0,0,0,0,0,0,-8.6035,-8.6061,-8.6272,-8.6273,-8.6274,-8.6398,-8.6388,-8.6584,-8.6387,-8.6342,-8.6369,-8.6361,-8.6503,-8.652,-8.6569,-8.6805,-8.6812,-8.6611,-8.662,-8.6626,-8.6629,0,0,0,0,0,0,0,-8.6022,-8.6053,-8.6363,-8.6275,-8.6276,-8.6251,-8.627,-8.6425,-8.646,-8.6345,-8.6339,-8.6362,-8.6502,-8.6556,-8.6573,-8.6815,-8.6611,-8.6623,-8.6632,-8.6637,-8.7247,-8.7255,0,0,0,0,0,0,-8.6011,-8.6043,-8.6357,-8.6369,-8.6134,-8.6265,-8.6285,-8.6365,-8.6458,-8.6466,-8.6368,-8.6357,-8.6536,-8.6557,-8.6578,-8.6852,-8.6625,-8.6638,-8.6646,-8.7239,-8.7249,-8.7257,0,0,0,0,0,0,-8.6002,-8.604,-8.635,-8.6204,-8.6242,-8.628,-8.6371,-8.6373,-8.6426,-8.6476,-8.6481,-8.6417,-8.6531,-8.6559,-8.6743,-8.6857,-8.6645,-8.6657,-8.723,-8.7242,-8.7253,-8.7402,0,0,0,0,0,0,-8.599,-8.6038,-8.6126,-8.6207,-8.625,-8.6515,-8.6378,-8.6381,-8.6451,-8.6439,-8.6523,-8.653,-8.6528,-8.6723,-8.6757,-8.6872,-8.6668,-8.722,-8.7235,-8.7249,-8.7387,-8.7418,-8.7444,0,0,0,0,0,-8.5975,-8.616,-8.6131,-8.617,-8.6362,-8.6521,-8.6546,-8.6541,-8.6461,-8.6549,-8.6581,-8.6527,-8.6839,-8.6743,-8.678,-8.6901,-8.7213,-8.7231,-8.7248,-8.7375,-8.7412,-8.7443,0,0,0,0,0,0,-8.6089,-8.617,-8.6139,-8.6355,-8.6433,-8.6505,-8.6617,-8.6581,-8.668,-8.6664,-8.6652,-8.6672,-8.6864,-8.69,-8.6792,-8.7127,-8.7013,-8.7039,-8.7097,-8.7132,-8.716,-8.7147,-8.6679,0,0,0,0,0,-8.614,-8.6264,-8.6327,-8.6512,-8.6552,-8.6579,-8.6647,-8.6638,-8.6716,-8.6747,-8.6792,-8.6869,-8.6984,-8.706,-8.7168,-8.7392,-8.7409,-8.7494,-8.7522,-8.7545,-8.7567,-8.7688,-8.7727,-8.7316,-8.7316,-8.7315,0,0,-8.6244,-8.6304,-8.6383,-8.6536,-8.6595,-8.6723,-8.6606,-8.6746,-8.684,-8.6768,-8.6946,-8.6982,-8.7065,-8.7271,-8.7363,-8.7307,-8.7685,-8.7568,-8.7585,-8.7596,-8.7711,-8.775,-8.7784,-8.7328,-8.7326,-8.7324,0,0,-8.6501,-8.6559,-8.672,-8.6782,-8.6873,-8.6889,-8.6928,-8.7007,-8.7028,-8.7207,-8.7156,-8.7266,-8.7465,-8.7527,-8.7585,-8.7867,-8.7821,-8.7902,-8.805,-8.8168,-8.82,-8.8229,-8.8329,-8.8366,-8.7924,-8.7925,-8.7925,0,-8.662,-8.6813,-8.6806,-8.6952,-8.702,-8.6963,-8.7124,-8.7183,-8.7305,-8.7352,-8.7288,-8.7538,-8.759,-8.7809,-8.7878,-8.7927,-8.7969,-8.7892,-8.8196,-8.8225,-8.8252,-8.8347,-8.8385,-8.7934,-8.7933,-8.7932,-8.7931,0,-8.6954,-8.7088,-8.7207,-8.7328,-8.741,-8.7562,-8.7577,-8.766,-8.7644,-8.7666,-8.7848,-8.791,-8.803,-8.8081,-8.8065,-8.8298,-8.8261,-8.8197,-8.8082,-8.83,-8.839,-8.8427,-8.7948,-8.7944,-8.7941,-8.7939,0,0,-8.7287,-8.7404,-8.7448,-8.7503,-8.7599,-8.7702,-8.7851,-8.7971,-8.8043,-8.8128,-8.8252,-8.8422,-8.8364,-8.843,-8.842,-8.8524,-8.8743,-8.8447,-8.8449,-8.85,-8.9004,-8.9052,-8.9094,-8.8713,-8.872,-8.8726,-8.8997,0,-8.7551,-8.7815,-8.7814,-8.8057,-8.8181,-8.8129,-8.8259,-8.8331,-8.8356,-8.8463,-8.8489,-8.861,-8.8524,-8.8564,-8.8664,-8.8695,-8.8844,-8.8676,-8.8827,-8.8833,-8.8809,-8.9141,-8.9192,-8.9445,-8.9032,-8.9038,-8.9042,0,-8.7894,-8.7994,-8.8251,-8.833,-8.8382,-8.8499,-8.8609,-8.8713,-8.8793,-8.8803,-8.8878,-8.8852,-8.9002,-8.8883,-8.9089,-8.8974,-8.9036,-8.9061,-8.907,-8.9084,-8.8951,-8.9165,-8.9526,-8.9564,-8.9097,-8.9093,-8.9089,0,-8.8113,-8.831,-8.8489,-8.8538,-8.8634,-8.8718,-8.8762,-8.8835,-8.8908,-8.9003,-8.905,-8.9161,-8.9222,-8.9307,-8.9311,-8.9224,-8.9519,-8.94,-8.9531,-8.9531,-8.9596,-8.9592,-8.9973,-8.9635,-8.9635,-8.9634,-8.9633,0,-8.8408,-8.8567,-8.8589,-8.8699,-8.8875,-8.8872,-8.9046,-8.9081,-8.9148,-8.9262,-8.9222,-8.9331,-8.933,-8.9439,-8.9443,-8.9613,-8.964,-8.9652,-8.9651,-8.9657,-8.9655,-8.9697,-8.9679,-8.9644,-8.9642,-8.964,-8.9638,0,-8.8681,-8.8703,-8.8895,-8.8971,-8.8994,-8.9121,-8.9185,-8.9289,-8.9311,-8.9457,-8.9491,-8.9524,-8.9651,-8.9664,-8.9811,-8.9813,-9.0019,-8.9999,-8.9993,-8.999,-9.012,-9.0108,-9.0541,-9.0598,-9.0224,-9.0227,-9.023,0,-8.8868,-8.899,-8.908,-8.9156,-8.9205,-8.9327,-8.9401,-8.9402,-8.9481,-8.9582,-8.9674,-8.9798,-8.9897,-9.0102,-9.0138,-9.025,-9.0232,-9.0376,-9.0248,-9.025,-9.0235,-9.0228,-9.024,-9.0401,-9.0405,-9.0408,-9.0411,0,-8.9198,-8.9203,-8.9314,-8.9429,-8.9519,-8.9609,-8.9693,-8.9756,-8.9767,-8.9857,-8.9988,-9.0065,-9.0217,-9.034,-9.045,-9.0492,-9.0454,-9.0451,-9.0488,-9.0494,-9.0486,-9.0492,-9.0061,-9.0441,-9.0438,-9.0436,-9.0434,-9.0433,-8.9435,-8.9541,-8.9622,-8.9746,-8.9809,-8.9889,-8.9991,-9.0026,-9.0137,-9.0262,-9.0254,-9.0399,-9.0475,-9.062,-9.0671,-9.0783,-9.0734,-9.0787,-9.08,-9.0813,-9.0827,-9.0468,-9.0802,-9.0801,-9.0801,-9.08,-9.0799,0,-8.9763,-8.9813,-8.9927,-9.0047,-9.0145,-9.0103,-9.0193,-9.0277,-9.0406,-9.0482,-9.0581,-9.0731,-9.085,-9.0896,-9.1012,-9.1093,-9.1078,-9.1123,-9.1117,-9.1128,-9.0863,-9.0821,-9.1133,-9.1133,-9.1133,-9.1133,-9.1133,-9.1133,-8.9946,-9.0123,-9.0138,-9.0345,-9.0393,-9.0537,-9.0592,-9.0665,-9.0725,-9.0896,-9.0996,-9.1026,-9.109,-9.121,-9.1317,-9.1327,-9.1372,-9.1425,-9.1428,-9.118,-9.1146,-9.1114,-9.1074,-9.1435,-9.1435,-9.1683,-9.1685,-9.1687]}]]